DateTimeUTC,F1_A11,F1_S11,BsB_S11,BsG_S11,BsR_S11,BbsB_S11,BbsG_S11,BbsR_S11,BaB_A11,BaG_A11,BaR_A11,Tu_S11,T_S11,Uu_S11,U_S11,P_S11,T1_A11
2021-07-15T08:00:00Z,00000200,20000000,,,,,,,-000.11,-000.11,-000.25,17.9,24.6,07.8,05.2,0660.5,31.0
2021-07-15T08:01:00Z,00000200,20000000,,,,,,,-000.21,-000.31,-000.15,17.9,24.6,07.8,05.2,0660.5,31.0
2021-07-15T08:02:00Z,00000200,20000000,,,,,,,-000.01,0000.07,0000.05,17.9,24.6,07.8,05.2,0660.5,31.0
2021-07-15T08:03:00Z,00000200,60000000,,,,,,,-000.01,0000.29,-000.03,17.9,24.6,07.5,05.0,0660.5,31.0
2021-07-15T08:04:00Z,00000200,40000000,-000.15,0000.09,0000.02,-000.00,-000.03,0000.11,-000.15,-000.42,-000.00,17.9,24.4,07.6,05.1,0661.5,31.0
2021-07-15T08:05:00Z,00000200,00000000,0000.50,0000.26,0000.16,0000.25,-000.17,0000.27,0000.27,0000.09,-000.06,18.0,24.4,07.6,05.2,0661.6,31.0
2021-07-15T08:06:00Z,00000200,00000000,0000.03,0000.21,0000.28,0000.38,0000.11,0000.28,-000.12,0000.15,0000.22,18.0,24.3,07.7,05.2,0661.6,31.0
2021-07-15T08:07:00Z,00000200,00000000,-000.58,0000.28,0000.21,0000.55,0000.17,-000.04,0000.09,-000.06,-000.36,18.0,24.3,07.7,05.2,0661.6,31.0
2021-07-15T08:08:00Z,00000200,00000000,0000.25,0000.10,0000.28,-000.21,0000.11,0000.11,-000.16,0000.07,0000.23,18.0,24.3,07.7,05.2,0661.5,31.0
2021-07-15T08:09:00Z,00000200,00000000,-000.29,0000.53,-000.00,-000.42,0000.16,0000.01,-000.19,-000.26,0000.25,17.9,24.3,07.7,05.2,0661.5,31.0
2021-07-15T08:10:00Z,00000200,00000000,0000.50,0000.54,-000.02,0000.09,0000.20,-000.07,0000.28,0000.27,-000.19,18.0,24.3,07.7,05.3,0661.5,31.0
2021-07-15T08:11:00Z,00000200,00000000,0000.13,0000.19,0000.54,0000.54,0000.16,0000.11,-000.03,0000.08,0000.07,17.9,24.3,07.7,05.2,0661.5,31.0
2021-07-15T08:12:00Z,00000200,00000000,0000.98,0000.27,0000.14,0000.19,0000.04,0000.15,-000.01,-000.02,-000.37,17.9,24.3,07.7,05.2,0661.5,31.0
2021-07-15T08:13:00Z,00000200,00000000,-000.38,0000.24,0000.16,0000.01,0000.25,0000.06,0000.10,-000.05,0000.24,17.9,24.3,07.7,05.2,0661.5,31.0
2021-07-15T08:14:00Z,00000200,00000000,-000.10,0000.16,0000.11,0000.21,0000.13,0000.16,0000.02,0000.03,0000.02,17.9,24.3,07.7,05.2,0661.5,31.0
2021-07-15T08:15:00Z,00000200,00000000,0000.30,0000.40,0000.01,0000.44,-000.11,-000.02,-000.02,0000.10,-000.01,17.9,24.2,07.7,05.2,0661.5,31.0
2021-07-15T08:16:00Z,00000200,00000000,-000.03,0000.56,0000.45,0000.24,0000.17,-000.00,0000.16,-000.08,0000.06,17.9,24.3,07.7,05.2,0661.6,31.0
2021-07-15T08:17:00Z,00000200,00000000,0000.27,0000.27,0000.02,-000.07,0000.35,0000.12,-000.21,-000.13,0000.19,17.9,24.2,07.7,05.2,0661.6,31.0
2021-07-15T08:18:00Z,00000200,00000000,0000.49,0000.32,0000.22,-000.15,0000.16,0000.11,0000.20,0000.04,-000.05,17.9,24.2,07.8,05.3,0661.5,31.0
2021-07-15T08:19:00Z,00000200,00000000,-000.27,0000.20,0000.25,-000.20,0000.17,0000.11,-000.19,-000.03,-000.12,17.9,24.2,07.8,05.3,0661.6,31.0
2021-07-15T08:20:00Z,00000200,00000000,-000.11,0000.36,0000.02,0000.39,0000.32,0000.04,0000.10,0000.11,0000.03,17.9,24.2,07.9,05.3,0661.5,31.0
2021-07-15T08:21:00Z,00000200,00000000,0000.21,0000.31,0000.17,0000.19,-000.08,0000.15,0000.15,-000.05,0000.16,17.9,24.2,07.9,05.3,0661.5,31.0
2021-07-15T08:22:00Z,00000200,00000000,0000.31,0000.31,0000.07,-000.30,0000.16,0000.05,-000.01,0000.19,-000.12,17.9,24.2,07.9,05.4,0661.5,31.0
2021-07-15T08:23:00Z,00000200,00000000,0000.42,0000.31,0000.31,-000.03,0000.16,-000.05,-000.21,-000.22,0000.18,17.9,24.2,07.9,05.4,0661.5,31.0
2021-07-15T08:24:00Z,00000200,00000000,0000.23,0000.30,0000.40,0000.27,0000.04,0000.32,0000.10,0000.20,-000.10,17.9,24.2,07.9,05.3,0661.6,31.0
2021-07-15T08:25:00Z,00000200,00000000,0000.79,0000.54,-000.06,0000.03,0000.08,-000.03,0000.22,-000.13,0000.11,17.9,24.2,07.8,05.3,0661.6,31.0
2021-07-15T08:26:00Z,00000200,00000000,-000.00,0000.43,0000.56,0000.33,-000.08,0000.32,0000.09,0000.35,0000.13,17.9,24.2,07.8,05.3,0661.6,31.0
2021-07-15T08:27:00Z,00000200,00000000,0000.38,0000.57,0000.07,0000.37,0000.20,-000.14,0000.27,0000.15,-000.09,17.9,24.2,08.0,05.4,0661.6,31.0
2021-07-15T08:28:00Z,00000200,00000000,-000.12,0000.21,0000.31,0000.20,0000.21,0000.21,-000.15,-000.25,0000.26,17.9,24.2,08.0,05.5,0661.6,31.0
2021-07-15T08:29:00Z,00000200,00000000,0000.17,0000.04,0000.31,0000.16,0000.04,0000.18,-000.06,0000.23,-000.50,17.9,24.2,08.1,05.5,0661.6,31.0
2021-07-15T08:30:00Z,00000200,00000000,0000.09,0000.24,0000.06,0000.44,-000.10,0000.08,-000.27,-000.12,0000.21,17.9,24.2,08.0,05.4,0661.6,31.0
2021-07-15T08:31:00Z,00000200,00000000,-000.34,0000.44,0000.37,-000.49,0000.15,0000.16,0000.05,-000.27,0000.33,17.8,24.1,08.1,05.5,0661.6,31.0
2021-07-15T08:32:00Z,00000200,00000000,-000.06,0000.08,0000.49,0000.16,0000.02,0000.43,0000.30,0000.36,-000.22,17.9,24.2,08.1,05.5,0661.6,31.0
2021-07-15T08:33:00Z,00000200,00000000,0000.03,0000.11,0000.40,0000.18,-000.13,0000.32,-000.01,-000.02,0000.13,17.9,24.1,08.1,05.5,0661.6,31.0
2021-07-15T08:34:00Z,00000200,00000000,-000.09,0000.45,0000.11,0000.52,-000.08,0000.14,0000.19,0000.16,0000.17,17.9,24.1,08.1,05.5,0661.6,31.0
2021-07-15T08:35:00Z,00000200,00000000,0000.53,0000.19,0000.29,0000.11,-000.13,-000.29,0000.22,-000.12,-000.08,17.8,24.1,08.2,05.6,0661.6,31.0
2021-07-15T08:36:00Z,00000200,00000000,-000.24,0000.33,0000.11,0000.82,-000.30,-000.08,-000.15,0000.32,0000.02,17.9,24.1,08.3,05.7,0661.6,31.0
2021-07-15T08:37:00Z,00000200,00000000,0000.52,0000.37,-000.21,-000.00,-000.15,-000.14,0000.32,0000.02,0000.38,17.9,24.1,08.2,05.6,0661.6,31.0
2021-07-15T08:38:00Z,00000200,00000000,-000.15,0000.29,-000.08,0000.21,0000.22,-000.01,-000.38,0000.12,-000.11,18.0,24.2,08.2,05.6,0661.6,31.0
2021-07-15T08:39:00Z,00000200,00000000,0000.19,0000.06,0000.24,0000.41,0000.14,0000.14,0000.15,-000.09,-000.02,18.1,24.2,08.2,05.6,0661.6,31.0
2021-07-15T08:40:00Z,00000200,00000000,-000.27,0000.36,0000.18,0000.07,0000.06,0000.10,0000.23,0000.00,0000.08,18.1,24.2,08.3,05.7,0661.6,31.0
2021-07-15T08:41:00Z,00000200,00000000,0000.84,0000.10,0000.22,-000.15,-000.02,0000.36,-000.34,-000.10,-000.05,18.1,24.3,08.3,05.7,0661.6,31.0
2021-07-15T08:42:00Z,00000200,00000000,0000.37,0000.16,-000.03,0000.24,0000.08,0000.08,0000.54,0000.16,-000.18,18.1,24.3,08.3,05.7,0661.6,31.0
2021-07-15T08:43:00Z,00000200,00000000,-000.13,-000.00,0000.31,-000.49,0000.20,-000.01,-000.27,-000.35,0000.31,18.1,24.2,08.2,05.7,0661.6,31.0
2021-07-15T08:44:00Z,00000200,00000000,0000.57,0000.40,0000.08,-000.25,-000.01,0000.44,-000.26,0000.49,-000.02,18.1,24.2,08.2,05.6,0661.6,31.0
2021-07-15T08:45:00Z,00000200,00000000,0000.83,0000.38,0000.24,0000.14,0000.31,0000.12,0000.03,-000.60,-000.24,18.1,24.2,08.2,05.6,0661.7,31.0
2021-07-15T08:46:00Z,00000200,00000000,-000.03,0000.30,0000.11,0000.02,0000.12,0000.03,0000.00,0000.24,0000.27,18.1,24.2,08.3,05.6,0661.6,31.0
2021-07-15T08:47:00Z,00000200,00000000,-000.49,-000.09,0000.09,0000.54,0000.18,0000.10,0000.22,0000.15,-000.13,18.1,24.2,08.3,05.7,0661.6,31.0
2021-07-15T08:48:00Z,00000200,00000000,-000.11,0000.44,-000.12,0000.19,0000.17,0000.21,0000.11,0000.19,0000.12,18.1,24.2,08.3,05.7,0661.6,31.0
2021-07-15T08:49:00Z,00000200,00000000,0000.10,0000.06,0000.16,-000.35,-000.05,-000.19,-000.44,-000.24,-000.12,18.1,24.2,08.3,05.7,0661.6,31.0
2021-07-15T08:50:00Z,00000200,00000000,0000.20,0000.40,0000.13,-000.33,0000.27,0000.13,0000.22,0000.05,-000.13,18.1,24.2,08.3,05.7,0661.6,31.0
2021-07-15T08:51:00Z,00000200,00000000,0000.13,0000.28,0000.34,0000.65,-000.01,0000.26,0000.25,0000.10,0000.27,18.0,24.2,08.2,05.6,0661.6,31.0
2021-07-15T08:52:00Z,00000200,00000000,0000.38,0000.21,0000.09,-000.29,0000.26,-000.08,-000.14,0000.00,-000.00,18.0,24.2,08.3,05.7,0661.7,31.0
2021-07-15T08:53:00Z,00000200,00000000,0000.60,0000.44,0000.26,0000.46,0000.03,0000.08,0000.03,-000.52,0000.06,18.0,24.2,08.3,05.7,0661.8,31.0
2021-07-15T08:54:00Z,00000200,00000000,0000.64,-000.11,0000.14,0000.21,0000.31,0000.09,-000.16,-000.04,-000.22,18.0,24.2,08.4,05.7,0661.7,31.0
2021-07-15T08:55:00Z,00000200,00000000,0000.00,0000.11,0000.26,0000.58,0000.26,0000.02,0000.23,0000.59,-000.15,18.0,24.2,08.4,05.7,0661.8,31.0
2021-07-15T08:56:00Z,00000200,00000000,-000.53,0000.40,-000.02,0000.44,0000.09,-000.18,-000.16,-000.12,0000.32,18.0,24.2,08.3,05.7,0661.8,31.0
2021-07-15T08:57:00Z,00000200,40000000,,,,,,,-000.49,-000.28,-000.26,18.0,24.2,08.3,05.7,0661.9,31.0
2021-07-15T08:58:00Z,00000200,60000000,,,,,,,0000.23,-000.12,-000.29,17.8,24.3,08.3,05.5,0660.9,31.0
2021-07-15T08:59:00Z,00000200,20000000,,,,,,,-000.37,0000.02,-000.07,17.8,24.4,08.2,05.4,0660.8,31.0
